Hourly Weather Lukawica

Today, 19 May, Wednesday

Time Temperature Precipitation Wind Pressure Humidity
00:00 +10°C° 0 mm 4 mps 727 mmHg 95%
01:00 +8°C° 0 mm 4 mps 727 mmHg 95%
02:00 +8°C° 0 mm 4 mps 727 mmHg 94%
03:00 +8°C° 0 mm 4 mps 728 mmHg 94%
04:00 +8°C° 0 mm 4 mps 728 mmHg 93%
05:00 +10°C° 0 mm 4 mps 728 mmHg 89%
06:00 +10°C° 0 mm 4 mps 728 mmHg 86%
07:00 +10°C° 0 mm 5 mps 729 mmHg 82%
08:00 +10°C° 0.1 mm 5 mps 729 mmHg 80%
09:00 +12°C° 0.1 mm 4 mps 729 mmHg 77%
10:00 +13°C° 0.1 mm 4 mps 729 mmHg 75%
11:00 +13°C° 0.2 mm 4 mps 729 mmHg 70%
12:00 +14°C° 0.2 mm 3 mps 729 mmHg 65%
13:00 +16°C° 0.2 mm 3 mps 729 mmHg 61%
14:00 +16°C° 0.1 mm 2 mps 728 mmHg 61%
15:00 +16°C° 0.1 mm 2 mps 728 mmHg 61%
16:00 +16°C° 0.1 mm 2 mps 728 mmHg 62%
17:00 +14°C° 0.1 mm 2 mps 728 mmHg 71%
18:00 +13°C° 0.1 mm 2 mps 728 mmHg 80%
19:00 +11°C° 0.1 mm 1 mps 728 mmHg 89%
20:00 +11°C° 0.1 mm 1 mps 728 mmHg 91%
21:00 +10°C° 0.1 mm 1 mps 729 mmHg 92%
22:00 +10°C° 0.1 mm 1 mps 729 mmHg 94%
23:00 +10°C° 0.1 mm 1 mps 729 mmHg 95%

Tomorrow, 20 May, Thursday

Time Temperature Precipitation Wind Pressure Humidity
00:00 +10°C° 0.1 mm 1 mps 728 mmHg 96%
01:00 +9°C° 0.1 mm 1 mps 728 mmHg 97%
02:00 +9°C° 0 mm 1 mps 728 mmHg 97%
03:00 +9°C° 0 mm 1 mps 728 mmHg 98%
04:00 +8°C° 0 mm 2 mps 728 mmHg 98%
05:00 +9°C° 0.3 mm 2 mps 729 mmHg 98%
06:00 +9°C° 0.3 mm 2 mps 729 mmHg 97%
07:00 +9°C° 0.3 mm 3 mps 729 mmHg 97%
08:00 +10°C° 0.5 mm 3 mps 729 mmHg 95%
09:00 +10°C° 0.5 mm 4 mps 729 mmHg 94%
10:00 +10°C° 0.5 mm 5 mps 729 mmHg 93%
11:00 +10°C° 0.9 mm 5 mps 730 mmHg 91%
12:00 +10°C° 0.9 mm 5 mps 730 mmHg 89%
13:00 +10°C° 0.9 mm 5 mps 730 mmHg 88%
14:00 +11°C° 0.4 mm 4 mps 730 mmHg 86%
15:00 +11°C° 0.4 mm 4 mps 730 mmHg 85%
16:00 +12°C° 0.4 mm 4 mps 730 mmHg 84%
17:00 +11°C° 0.1 mm 4 mps 731 mmHg 83%
18:00 +11°C° 0.1 mm 3 mps 731 mmHg 83%
19:00 +10°C° 0.1 mm 3 mps 731 mmHg 83%
20:00 +10°C° 0 mm 3 mps 732 mmHg 83%
21:00 +9°C° 0 mm 3 mps 732 mmHg 84%
22:00 +9°C° 0 mm 2 mps 732 mmHg 84%
23:00 +8°C° 0 mm 2 mps 732 mmHg 87%

Day after tomorrow, 21 May, Friday

Time Temperature Precipitation Wind Pressure Humidity
00:00 +8°C° 0 mm 2 mps 733 mmHg 89%
01:00 +7°C° 0 mm 2 mps 733 mmHg 92%
02:00 +6°C° 0 mm 2 mps 733 mmHg 94%
03:00 +6°C° 0 mm 2 mps 733 mmHg 96%
04:00 +5°C° 0 mm 2 mps 734 mmHg 97%
05:00 +7°C° 0 mm 2 mps 734 mmHg 93%
06:00 +8°C° 0 mm 2 mps 734 mmHg 89%
07:00 +10°C° 0 mm 2 mps 734 mmHg 85%
08:00 +13°C° 0 mm 2 mps 734 mmHg 76%
09:00 +13°C° 0 mm 3 mps 734 mmHg 67%
10:00 +16°C° 0 mm 3 mps 734 mmHg 58%
11:00 +17°C° 0 mm 2 mps 733 mmHg 54%
12:00 +18°C° 0 mm 2 mps 733 mmHg 49%
13:00 +19°C° 0 mm 2 mps 733 mmHg 45%
14:00 +19°C° 0 mm 2 mps 733 mmHg 49%
15:00 +18°C° 0 mm 2 mps 732 mmHg 53%
16:00 +18°C° 0 mm 2 mps 732 mmHg 56%
17:00 +16°C° 0 mm 2 mps 732 mmHg 65%
18:00 +14°C° 0 mm 2 mps 732 mmHg 73%
19:00 +12°C° 0 mm 2 mps 732 mmHg 82%
20:00 +12°C° 0 mm 2 mps 732 mmHg 85%
21:00 +10°C° 0 mm 2 mps 732 mmHg 87%
22:00 +9°C° 0 mm 2 mps 732 mmHg 90%
23:00 +9°C° 0 mm 2 mps 732 mmHg 90%

22 May, Saturday

Time Temperature Precipitation Wind Pressure Humidity
00:00 +9°C° 0 mm 2 mps 731 mmHg 89%
01:00 +8°C° 0 mm 2 mps 731 mmHg 89%
02:00 +8°C° 0 mm 2 mps 731 mmHg 89%
03:00 +8°C° 0 mm 3 mps 731 mmHg 89%
04:00 +8°C° 0 mm 3 mps 731 mmHg 90%
05:00 +10°C° 0 mm 3 mps 730 mmHg 82%
06:00 +13°C° 0 mm 4 mps 730 mmHg 74%
07:00 +15°C° 0 mm 5 mps 730 mmHg 66%
08:00 +16°C° 0 mm 5 mps 730 mmHg 60%
09:00 +17°C° 0 mm 6 mps 730 mmHg 55%
10:00 +19°C° 0 mm 6 mps 730 mmHg 49%
11:00 +19°C° 0 mm 6 mps 729 mmHg 48%
12:00 +20°C° 0 mm 6 mps 729 mmHg 47%
13:00 +20°C° 0 mm 6 mps 728 mmHg 46%
14:00 +20°C° 0 mm 6 mps 728 mmHg 50%
15:00 +20°C° 0 mm 6 mps 728 mmHg 55%
16:00 +19°C° 0 mm 5 mps 728 mmHg 59%
17:00 +19°C° 0 mm 5 mps 728 mmHg 62%
18:00 +17°C° 0 mm 6 mps 727 mmHg 64%
19:00 +16°C° 0 mm 6 mps 727 mmHg 67%
20:00 +16°C° 0 mm 6 mps 727 mmHg 68%
21:00 +16°C° 0 mm 6 mps 727 mmHg 70%
22:00 +16°C° 0 mm 6 mps 727 mmHg 71%
23:00 +14°C° 0.2 mm 5 mps 727 mmHg 79%

23 May, Sunday

Time Temperature Precipitation Wind Pressure Humidity
00:00 +13°C° 0.2 mm 4 mps 727 mmHg 87%
01:00 +12°C° 0.2 mm 3 mps 728 mmHg 95%
02:00 +12°C° 0 mm 2 mps 728 mmHg 95%
03:00 +10°C° 0 mm 2 mps 728 mmHg 96%
04:00 +11°C° 0 mm 1 mps 728 mmHg 96%
05:00 +11°C° 0.9 mm 1 mps 729 mmHg 96%
06:00 +10°C° 0.9 mm 1 mps 729 mmHg 97%
07:00 +9°C° 0.9 mm 2 mps 730 mmHg 97%
08:00 +10°C° 1 mm 1 mps 730 mmHg 96%
09:00 +10°C° 1 mm 1 mps 730 mmHg 96%
10:00 +10°C° 1 mm 1 mps 731 mmHg 95%
11:00 +10°C° 0.1 mm 1 mps 731 mmHg 91%
12:00 +11°C° 0.1 mm 1 mps 731 mmHg 88%
13:00 +12°C° 0.1 mm 1 mps 731 mmHg 85%
14:00 +13°C° 0.1 mm 2 mps 731 mmHg 79%
15:00 +14°C° 0.1 mm 2 mps 731 mmHg 73%
16:00 +15°C° 0.1 mm 2 mps 731 mmHg 67%
17:00 +14°C° 0.5 mm 2 mps 731 mmHg 76%
18:00 +13°C° 0.5 mm 2 mps 732 mmHg 84%
19:00 +10°C° 0.5 mm 2 mps 732 mmHg 92%
20:00 +10°C° 0.1 mm 2 mps 733 mmHg 93%
21:00 +9°C° 0.1 mm 3 mps 733 mmHg 94%
22:00 +9°C° 0.1 mm 3 mps 734 mmHg 94%
23:00 +8°C° 0 mm 2 mps 734 mmHg 95%

24 May, Monday

Time Temperature Precipitation Wind Pressure Humidity
00:00 +8°C° 0 mm 2 mps 735 mmHg 95%
01:00 +7°C° 0 mm 2 mps 735 mmHg 96%
02:00 +7°C° 0 mm 2 mps 735 mmHg 95%
03:00 +7°C° 0 mm 2 mps 736 mmHg 95%
04:00 +6°C° 0 mm 2 mps 736 mmHg 95%
05:00 +8°C° 0.1 mm 2 mps 736 mmHg 92%
06:00 +9°C° 0.1 mm 2 mps 737 mmHg 89%
07:00 +10°C° 0.1 mm 2 mps 737 mmHg 86%
08:00 +12°C° 0.2 mm 3 mps 737 mmHg 75%
09:00 +13°C° 0.2 mm 4 mps 737 mmHg 63%
10:00 +14°C° 0.2 mm 5 mps 737 mmHg 52%
11:00 +15°C° 0 mm 5 mps 737 mmHg 50%
12:00 +15°C° 0 mm 5 mps 737 mmHg 48%
13:00 +16°C° 0 mm 5 mps 737 mmHg 46%
14:00 +17°C° 0 mm 4 mps 737 mmHg 48%
15:00 +17°C° 0 mm 3 mps 737 mmHg 51%
16:00 +17°C° 0 mm 3 mps 737 mmHg 53%
17:00 +15°C° 0 mm 2 mps 737 mmHg 61%
18:00 +14°C° 0 mm 2 mps 737 mmHg 69%
19:00 +12°C° 0 mm 1 mps 738 mmHg 76%
20:00 +11°C° 0 mm 1 mps 738 mmHg 81%
21:00 +9°C° 0 mm 2 mps 738 mmHg 87%
22:00 +8°C° 0 mm 2 mps 738 mmHg 92%
23:00 +9°C° 0 mm 2 mps 738 mmHg 92%
Show more

We Need Your Consent

Meteoprog and our Service Providers may store and access personal data such as cookies, device identifiers or other similar technologies on your device and process such data to personalise content and ads, as well as provide social media features and to analyse the traffic.

  • Store and/or access information on your device

    Cookies, device identifiers or other information can be stored or accessed on your device for the purposes indicated above.

  • Personalised ads and content, ad and content measurement, audience insights, and products development

    Ads and content can be personalised based on a profile. More data can be added to better personalise ads and content. Ad and content performance can be measured. Insights about the audience who saw the ads and content can be derived. Such data can be used to develop or improve user’s experience, systems and software.

By clicking ‘I Agree’ you will allow the use of indicated cookies, device identifiers, web beacons or other similar technologies. Your settings can be changed in the browser on your device.

For certain purposes, legitimate interests may be relied on, rather than consent. You can read more about this in our Privacy and Cookie Policy.